Retour au catalogue

ICEYE-X53

ActifScienceSSO
NORAD 64584·PAYLOAD·🇫🇮 Finland

Lancé Jun 23, 2025 depuis Vandenberg Space Force Base

Loading…

Prochains Passages (prochaines 24 heures)

TLE

FraisSource: Space-Track

Époque: Sep 14, 2026, 13:26 UTC

1 64584U 25135BJ  26257.55988492  .00004335  00000-0  34515-3 0  9991
2 64584  97.7316  13.9096 0001553 133.8874 226.2478 15.00901258 67485

Suivez ICEYE-X53 en temps réel avec AllMySat

Download on the App Store